Location: Treviso
(45.6669°N, 12.2430°E)
Time: 04:54:17
(UTC+01:00)

ISS - Pass Details

Date: 23 January 2021
Orbit: 418 x 421 km, 51.6° (Epoch: 23 January)

Event Time Altitude Azimuth Distance (km) Brightness Sun altitude
Rises 19:30:49 0° 273° (W) 2,369 1.4 -25.4°
Reaches altitude 10° 19:33:04 10° 284° (WNW) 1,506 0.0 -25.7°
Enters shadow 19:34:47 23° 306° (NW) 950 -1.5 -26.0°
